Flag for Lebanon Weather past 2 weeks in Sidon, Lebanon

Now
86 °F

Scattered clouds.


Feels Like: 91 °F
Forecast: 80 / 91 °F
Wind: 7 mph from West

Location: Beirut Airport

Current Time: Aug 30, 2015 at 5:29:14 PM

Latest Report: Aug 30, 2015 at 5:00 PM


Visibility: 5 mi

Pressure: 29.86 "Hg

Humidity: 59%

Dew point: 70 °F

Location of SidonLocation

Historic Weather in Sidon — Graph

°F

Sidon temperature yesterday

Maximum temperature yesterday: 88 °F (at 1:00 PM)
Minimum temperature yesterday: 81 °F (at 2:00 AM)
Average temperature yesterday: 84 °F

Past Weeks' High & Low Weather Summary

 TemperatureHumidityPressure
High97 °F (Aug 16, 3:00 PM)84% (Aug 15, 7:00 PM)29.92 "Hg (Aug 15, 7:00 PM)
Low79 °F (Aug 22, 5:00 AM)30% (Aug 16, 4:00 PM)29.74 "Hg (Aug 17, 5:00 AM)
Average85 °F62%29.83 "Hg
* Reported Aug 15 4:00 PM — Aug 30 4:00 PM, Sidon, Weather by CustomWeather, © 2015

Note: Actual official high and low records may vary slightly from our data, if they occured in-between our weather recording intervals... More about our weather records

Advertising

Sidon weather history for previous 24 hours

 ConditionsComfort  
Time TempWeatherWind HumidityBarometerVisibility
4:00 PM
Sun, Aug 30
86 °FScattered clouds.9 mph62%29.86 "HgN/A
3:00 PM88 °FPassing clouds.10 mph59%29.86 "HgN/A
2:00 PM88 °FPassing clouds.12 mph59%29.86 "HgN/A
1:00 PM88 °FWarm.10 mph59%29.86 "HgN/A
12:00 PM88 °FPassing clouds.9 mph59%29.86 "HgN/A
11:00 AM86 °FSunny.9 mph66%29.89 "Hg5 mi
10:00 AM84 °FSunny.9 mph66%29.86 "Hg5 mi
9:00 AM84 °FSunny.6 mph62%29.86 "Hg5 mi
8:00 AM82 °FSunny.2 mph55%29.86 "Hg10 mi
7:00 AM81 °FPassing clouds.5 mph58%29.83 "HgN/A
6:00 AM79 °FPassing clouds.5 mph58%29.83 "HgN/A
5:00 AM81 °FPassing clouds.5 mph54%29.83 "HgN/A
4:00 AM81 °FPassing clouds.6 mph62%29.83 "HgN/A
3:00 AM81 °FPassing clouds.5 mph66%29.86 "HgN/A
2:00 AM81 °FPassing clouds.5 mph70%29.86 "HgN/A
1:00 AM82 °FPassing clouds.5 mph66%29.86 "HgN/A
12:00 AM82 °FPassing clouds.5 mph70%29.89 "HgN/A
11:00 PM
Sat, Aug 29
82 °FPassing clouds.5 mph70%29.89 "HgN/A
10:00 PM84 °FPassing clouds.2 mph66%29.89 "HgN/A
9:00 PM84 °FPassing clouds.2 mph66%29.89 "HgN/A
8:00 PM84 °FPassing clouds.3 mph66%29.86 "HgN/A
7:00 PM86 °FPassing clouds.5 mph62%29.86 "HgN/A
6:00 PM86 °FPassing clouds.5 mph62%29.86 "HgN/A
5:00 PM88 °FPassing clouds.7 mph59%29.86 "HgN/A
Weather by CustomWeather, © 2015

See weather overviewHow to use our weather pages